Location: Newark
(35.2672°N, 80.7344°W)
Time: 23:29:59
(UTC+00:00)

Transit 2A Rocket - Pass Details

Date: 30 January 2020
Orbit: 592 x 911 km, 66.7° (Epoch: 19 February)

Event Time Altitude Azimuth Distance (km) Brightness Sun altitude
Rises 19:22:41 0° 320° (NW) 3,117 8.0 31.4°
Reaches altitude 10° 19:25:11 10° 309° (NW) 2,247 7.4 31.1°
Maximum altitude 19:29:36 30° 250° (WSW) 1,387 7.5 30.6°
Drops below altitude 10° 19:34:22 10° 191° (S) 2,419 8.9 30.1°
Sets 19:37:10 0° 181° (S) 3,398 9.2 29.8°
